This demonstration page uses our WeatherBlox Daily Observations layout. Learn more.

Left ArrowRight Arrow

Hourly Observations for July 2, 2017

Temp ( °F °C ) Dew Point ( °F °C ) Humidity (%) Winds ( mph kmh ) Pressure ( in mb ) Visibility ( mi km ) Precip ( " mm )
12:54 am 00:54 Partly Cloudy 72 22.2 62 16.7 71 71 S 10 17 29.97 1015 10 16 0.00 0.00
1:54 am 01:54 Clear 71 21.7 62 16.7 73 73 S 10 17 29.96 1015 10 16 0.00 0.00
2:54 am 02:54 Clear 70 21.1 61 16.1 73 73 S 9 15 29.96 1015 10 16 0.00 0.00
3:54 am 03:54 Clear 71 21.7 60 15.6 68 68 SSW 9 15 29.96 1014 10 16 0.00 0.00
4:54 am 04:54 Clear 69 20.6 59 15 70 70 SSW 9 15 29.95 1014 10 16 0.00 0.00
5:54 am 05:54 Partly Cloudy 69 20.6 59 15 70 70 WNW 7 11 29.98 1015 10 16 0.00 0.00
6:27 am 06:27 Mostly Cloudy with Nearby Thunderstorms 70 21.1 59 15 68 68 SSW 16 26 29.97 1015 10 16 0.00 0.00
6:43 am 06:43 Mostly Cloudy with Light Rain 74 23.3 61 16.1 64 64 SW 25 41 29.97 1015 10 16 0.00 0.03
6:50 am 06:50 Mostly Cloudy with Nearby Thunderstorms 75 24 61 16 61 61 SW 30 48 29.91 1013 10 16 0.00 0.03
6:54 am 06:54 Mostly Cloudy with Thunderstorms 76 24.4 59 15 56 56 WSW 28 44 29.95 1014 10 16 0.00 0.03
7:33 am 07:33 Cloudy with Strong Thunderstorms 69 20.6 61 16.1 76 76 SW 30 48 30.00 1016 2 3 0.04 1.02
7:49 am 07:49 Cloudy with Thunderstorms 70 21 63 17 78 78 W 15 24 30.03 1017 3 5 0.36 9.14
7:54 am 07:54 Cloudy with Thunderstorms 67 19.4 62 16.7 84 84 WSW 14 22 30.05 1018 7 11 0.37 9.40
8:06 am 08:06 Cloudy with Thunderstorms 66 18.9 62 16.7 87 87 WNW 5 7 30.03 1017 5 8 0.02 0.51
8:12 am 08:12 Cloudy with Strong Thunderstorms 65 18.3 63 17.2 93 93 ENE 6 9 30.03 1017 2 3 0.05 1.27
8:23 am 08:23 Cloudy with Strong Thunderstorms 67 19.4 61 16.1 81 81 SSE 13 20 30.03 1017 3 5 0.33 8.38
8:36 am 08:36 Cloudy with Thunderstorms 67 19.4 63 17.2 87 87 WSW 16 26 30.03 1017 6 10 0.38 9.65
8:52 am 08:52 Cloudy with Nearby Thunderstorms 68 20 61 16 78 78 WSW 13 20 30.03 1017 10 16 0.39 9.91
8:54 am 08:54 Cloudy with Nearby Thunderstorms 68 20 61 16.1 78 78 WSW 15 24 30.04 1017 10 16 0.39 9.91
9:12 am 09:12 Cloudy with Light Rain 66 18.9 61 16.1 84 84 WSW 18 30 30.03 1017 10 16 0.01 0.25
9:19 am 09:19 Cloudy with Nearby Thunderstorms 66 18.9 61 16.1 84 84 WSW 20 31 30.03 1017 10 16 0.01 0.25
9:54 am 09:54 Mostly Cloudy with Thunderstorms 68 20 63 17.2 84 84 WSW 13 20 30.05 1018 10 16 0.02 0.51
10:35 am 10:35 Mostly Cloudy with Nearby Thunderstorms 66 18.9 63 17.2 90 90 SSW 8 13 30.03 1017 10 16 0.03 0.76
10:50 am 10:50 Partly Cloudy 66 19 64 18 94 94 VRB 3 6 30.03 1017 10 16 0.03 0.76
10:54 am 10:54 Partly Cloudy 67 19.4 64 17.8 91 91 SSE 8 13 30.02 1017 10 16 0.03 0.76
11:54 am 11:54 Mostly Cloudy 72 22.2 65 18.3 79 79 N 18 30 30.06 1018 10 16 0.00 0.00
12:10 pm 12:10 Mostly Cloudy 75 23.9 65 18.3 71 71 NNE 16 26 30.06 1018 10 16 0.00 0.00
12:54 pm 12:54 Mostly Sunny 78 25.6 64 17.8 62 62 NNE 13 20 30.06 1018 10 16 0.00 0.00
1:54 pm 13:54 Mostly Cloudy with Light Rain 75 23.9 64 17.8 69 69 ENE 7 11 30.04 1017 10 16 0.00 0.03
2:54 pm 14:54 Cloudy with Light Rain 76 24.4 69 20.6 79 79 S 10 17 30.01 1016 10 16 0.01 0.25
3:54 pm 15:54 Sunny 83 28.3 68 20 61 61 S 16 26 29.97 1015 10 16 0.00 0.03
4:54 pm 16:54 Sunny 83 28.3 66 18.9 57 57 S 9 15 29.97 1015 10 16 0.00 0.00
5:54 pm 17:54 Sunny 84 28.9 66 18.9 55 55 S 9 15 29.94 1014 10 16 0.00 0.00
6:54 pm 18:54 Sunny 83 28.3 68 20 61 61 SE 7 11 29.94 1014 10 16 0.00 0.00
7:54 pm 19:54 Sunny 82 27.8 67 19.4 60 60 Calm 29.95 1014 10 16 0.00 0.00
8:54 pm 20:54 Sunny 76 24.4 69 20.6 79 79 ENE 5 7 29.97 1015 10 16 0.00 0.00
9:54 pm 21:54 Clear 77 25 69 20.6 77 77 Calm 29.97 1015 10 16 0.00 0.00
10:54 pm 22:54 Clear 77 25 70 21.1 79 79 Calm 29.98 1015 10 16 0.00 0.00
11:54 pm 23:54 Clear 72 22.2 69 20.6 91 91 Calm 29.98 1015 8 13 0.00 0.00

Powered by AerisWeather